Tracking 31027 objects as of 19-Jul-2025
HD Live streaming from Space Station
objects crossing your sky now

COSMOS 1818 COOLANT

Track COSMOS 1818 COOLANT now!
10-day predictions


NORAD ID: 36935
Int'l Code: 1987-011P
Perigee: 755.7 km
Apogee: 775.5 km
Inclination: 65.0 °
Period: 100.0 minutes
Semi major axis: 7136 km
RCS: 0.0035 m2 (small)
Launch date: February 1, 1987
Source: Commonwealth of Independent States (former USSR) (CIS)
Launch site: TYURATAM MISSILE AND SPACE COMPLEX (TTMTR)

Note: This is SATELLITE DEBRIS
Your satellite tracking list
DELTA 1 DEB
Track 1 satellite(s)




NASA's NSSDC Master Catalog

Two Line Element Set (TLE):
1 36935U 87011P   25199.80039175  .00000763  00000-0  27367-3 0  9996
2 36935  65.0069  31.8635 0013879 256.0341 103.9204 14.40005019293668
Source of the keplerian elements: AFSPC